Regional Weather Roundup
Issued by NWS Albany, NY

Home | Current Version | Previous Version | Graphics & Text | Print | Product List | Glossary Off
Versions: 1 2 3 4 5 6 7 8 9 10 11 12 13 14 15 16 17 18 19 20 21 22 23 24 25 26 27 28 29 30 31 32 33 34 35 36 37 38 39 40 41 42 43 44 45 46 47 48 49 50

000
ASUS41 KALY 240310
RWRALY

NEW YORK STATE HOURLY WEATHER ROUNDUP
NATIONAL WEATHER SERVICE ALBANY NY
1100 PM EDT MON MAY 23 2016

NOTE: "FAIR" INDICATES FEW OR NO CLOUDS BELOW 12,000 FEET WITH NO
SIGNIFICANT WEATHER AND/OR NO OBSTRUCTIONS TO VISIBILITY.

NYZ032-033-038>043-046>054-057>066-NYZ062>081-082-084-240400-
EAST


CITY           SKY/WX    TMP DP  RH WIND       PRES   REMARKS
ALBANY         CLOUDY    66  39  37 N5        29.88R
GLENS FALLS    MOCLDY    56  44  64 CALM      29.89R
POUGHKEEPSIE   CLOUDY    65  50  58 SE7       29.91R
MONTGOMERY     CLOUDY    62  55  77 S5        29.90R
WHITE PLAINS   CLOUDY    61  47  59 CALM      29.92R
ISLIP          CLOUDY    62  49  62 E5        29.91S
NEW YORK CITY  CLOUDY    66  48  52 SW5       29.92R
CENTRAL PARK   CLOUDY    63  45  51 CALM      29.95R
$$

NYZ005>009-017-018-044>046-055-056-240400-
CENTRAL


CITY           SKY/WX    TMP DP  RH WIND       PRES   REMARKS
FULTON         CLEAR     55  44  66 CALM      29.94S
SYRACUSE       PTCLDY    57  44  62 CALM      29.94R
ROME           PTCLDY    60  45  57 NW5       29.94R
ELMIRA         PTCLDY    54  43  66 CALM      29.96R
BINGHAMTON     CLEAR     62  40  44 NW8       29.95R
MONTICELLO     CLOUDY    61  46  59 N6        29.92S
$$

NYZ026>034-041>043-087-240400-
NORTH


CITY           SKY/WX    TMP DP  RH WIND       PRES   REMARKS
WATERTOWN      CLEAR     50  44  80 CALM      29.93S
FORT DRUM      NOT AVBL
MASSENA        CLEAR     54  48  80 CALM      29.91S
SARANAC LAKE   CLEAR     43  35  73 CALM      29.96R
PLATTSBURGH    CLEAR     55  44  66 CALM      29.91R
$$

NYZ001>004-010>016-019>021-085-240400-
WEST


CITY           SKY/WX    TMP DP  RH WIND       PRES   REMARKS
NIAGARA FALLS  CLEAR     58  48  69 S7        29.97R
BUFFALO        PTCLDY    58  49  72 SW9       29.99R
DUNKIRK        CLEAR     57  43  59 SW6       30.00S
JAMESTOWN        N/A    N/A N/A N/A MISG        N/A
WELLSVILLE     CLEAR     60  39  45 NW5       30.02S
ROCHESTER      CLEAR     59  50  72 SW5       29.96R
PENN YAN       CLEAR     52  43  71 SW3       29.96S
$$

             KEY
       WCI = WIND CHILL INDEX
       VSB = VISIBILITY
       HX  = HEAT INDEX
$$



USA.gov is the U.S. government's official web portal to all federal, state and local government web resources and services.